Tracking 25734 objects as of 26-May-2022
HD Live streaming from Space Station
objects crossing your sky now

TITAN 34B AGENA D DEB

Track TITAN 34B AGENA D DEB now!


NORAD ID: 25588
Int'l Code: 1983-078E
Perigee: 545.7 km
Apogee: 36,635.8 km
Inclination: 63.3 °
Period: 654.1 minutes
Semi major axis: 24961 km
RCS: Unknown
Launch date: July 31, 1983
Source: United States (US)
Launch site: AIR FORCE WESTERN TEST RANGE (AFWTR)

Note: This is SATELLITE DEBRIS
aabbcc
Your satellite tracking list
Your tracking list is empty




NASA's NSSDC Master Catalog

Two Line Element Set (TLE):
1 25588U 83078E   22145.82010424  .00000015  00000-0  86511-3 0  9999
2 25588  63.2671 275.3959 7229068 275.2581  13.4644  2.20135688 24282
Source of the keplerian elements: AFSPC